This is the latest recevied weather packets stored in our database for station/object F4GQK-13. If no packets are shown the sender has not sent any weather packets the latest 10 day(s).
| Time | Temp. | Humidity | Pressure | Rain* | Wind** | Luminosity | Snow |
|---|---|---|---|---|---|---|---|
| 1777631705 | 22.22° C | 59% | 1023.3 hPa | 0 mm | - | 689 W/m² | - |
| 1777631405 | 21.67° C | 60% | 1023.2 hPa | 0 mm | - | 683 W/m² | - |
| 1777631105 | 21.67° C | 60% | 1023.1 hPa | 0 mm | - | 678 W/m² | - |
| 1777630805 | 22.22° C | 59% | 1023.2 hPa | 0 mm | - | 669 W/m² | - |
| 1777630505 | 21.67° C | 57% | 1023.2 hPa | 0 mm | - | 661 W/m² | - |
| 1777630205 | 22.22° C | 57% | 1023.2 hPa | 0 mm | - | 657 W/m² | - |
| 1777629905 | 22.22° C | 56% | 1023.2 hPa | 0 mm | - | 647 W/m² | - |
| 1777629605 | 22.22° C | 55% | 1023 hPa | 0 mm | - | 635 W/m² | - |
| 1777629305 | 21.67° C | 55% | 1023.2 hPa | 0 mm | - | 632 W/m² | - |
| 1777629005 | 21.11° C | 54% | 1023.2 hPa | 0 mm | - | 617 W/m² | - |
| 1777628705 | 21.11° C | 53% | 1023.4 hPa | 0 mm | - | 609 W/m² | - |
| 1777628404 | 21.11° C | 53% | 1023.5 hPa | 0 mm | - | 600 W/m² | - |
| 1777628104 | 20.56° C | 54% | 1023.3 hPa | 0 mm | - | 591 W/m² | - |
| 1777627805 | 20.56° C | 54% | 1023.4 hPa | 0 mm | - | 580 W/m² | - |
| 1777627505 | 20.56° C | 53% | 1023.3 hPa | 0 mm | - | 573 W/m² | - |
| 1777627203 | 20.56° C | 50% | 1023.5 hPa | 0 mm | - | 562 W/m² | - |
| 1777626905 | 21.11° C | 51% | 1023.3 hPa | 0 mm | - | 549 W/m² | - |
| 1777626605 | 20.56° C | 50% | 1023.4 hPa | 0 mm | - | 539 W/m² | - |
| 1777626304 | 20° C | 49% | 1023.1 hPa | 0 mm | - | 528 W/m² | - |
| 1777626004 | 18.89° C | 52% | 1023.2 hPa | 0 mm | - | 516 W/m² | - |
| 1777625705 | 18.89° C | 52% | 1023.2 hPa | 0 mm | - | 507 W/m² | - |
| 1777625405 | 18.89° C | 51% | 1023.3 hPa | 0 mm | - | 495 W/m² | - |
| 1777625105 | 18.33° C | 54% | 1023.3 hPa | 0 mm | - | 482 W/m² | - |
| 1777624805 | 18.33° C | 51% | 1023.3 hPa | 0 mm | - | 469 W/m² | - |
| 1777624505 | 17.78° C | 54% | 1023.4 hPa | 0 mm | - | 457 W/m² | - |
* Rain latest hour (hover to see other rain measurements)
** Current wind speed in m/s (hover to see current wind gust speed)